Location: Newark
(0.5481°S, 166.9394°E)
Time: 13:44:50
(UTC+00:00)

Envisat - Visible Passes

Search period start: 15 October 2019 00:00
Search period end: 25 October 2019 00:00
Orbit: 764 x 766 km, 98.1° (Epoch: 15 October)

Date Brightness Start Highest point End Pass type
(mag) Time Alt. Az. Time Alt. Az. Time Alt. Az.
15 Oct 3.3 07:03:15 10° SSE 07:08:06 46° ENE 07:12:56 10° N visible
16 Oct 5.0 08:05:51 10° SSW 08:10:12 29° WSW 08:14:33 10° NW visible
17 Oct 3.0 07:28:27 10° S 07:33:33 84° W 07:38:36 10° NNW visible
18 Oct 6.0 08:33:02 10° SW 08:35:36 14° WSW 08:38:09 10° WNW visible
19 Oct 4.4 07:54:15 10° S 07:58:58 39° WSW 08:03:41 10° NNW visible
20 Oct 2.9 07:17:15 10° SSE 07:22:18 71° ENE 07:27:21 10° N visible
21 Oct 5.7 08:20:51 10° SSW 08:24:23 19° WSW 08:27:55 10° WNW visible
22 Oct 3.8 07:42:47 10° S 07:47:44 54° WSW 07:52:40 10° NNW visible
23 Oct 3.1 07:06:09 10° SSE 07:11:05 52° ENE 07:15:59 10° N visible
24 Oct 5.2 08:08:59 10° SSW 08:13:09 26° WSW 08:17:19 10° NW visible
